[[{"header":{"parameterUnit":"m.s-1","parameterCategory":1,"la1":30.2991,"la2":30.254,"lo1":-89.0895,"lo2":-89.0444,"dy":0.0017,"dx":0.0017,"nx":28,"ny":28,"refTime":"2023-09-07T09:00:00:Z","depth":0,"parameterNumber":2,"parameterNumberName":"U-component_of_WINDS"},"data":[0,0,0,0,0,0,0,0,0,0,0,0,0,0,0,0,0,0,0,0,0,0,0,0,0,0,0,0,0,0,0,0,0,0,0,0,0,0,0,0,0,0,0,0,0,0,0,0,0,0,0,0,0,0,0,0,0,0,0.4628,0.4628,0,0.471,0.4711,0.4712,0.4736,0.4735,0.4735,0.4734,0.4817,0.482,0.4822,0,0,0,0,0,0,0,0,0,0,0,0,0,0.4487,0.449,0.4627,0.4629,0.463,0.471,0.4711,0.4712,0.4736,0.4735,0.4735,0.4734,0.4816,0.4819,0.4823,0,0,0,0,0,0,0,0,0,0,0,0,0,0.4557,0.4491,0.4627,0.4651,0.4654,0.471,0.4711,0.4713,0.4736,0.4735,0.4734,0.4734,0.4815,0.4819,0.4823,0.4861,0,0,0.4835,0.4837,0,0,0,0,0,0,0,0,0.4553,0.4562,0.4646,0.4649,0.4653,0.4712,0.4692,0.4762,0.4736,0.4705,0.4734,0.4733,0.4783,0.4789,0.4806,0.4865,0.4868,0.4835,0.4838,0.484,0.4841,0,0,0,0,0,0,0,0.4548,0.4558,0.466,0.4648,0.4651,0.4657,0.4666,0.4706,0.4746,0.4707,0.4709,0.4719,0.4784,0.4802,0.4808,0.487,0.4835,0.4839,0.4841,0.4843,0.4963,0.4964,0,0,0,0,0,0,0.4539,0.4554,0.4658,0.4663,0.46,0.466,0.467,0.4694,0.4746,0.4753,0.4719,0.472,0.4796,0.4804,0.4811,0.4859,0.484,0.4843,0.4846,0.4962,0.4963,0.4964,0,0,0,0,0,0,0.4536,0.4548,0.4654,0.4609,0.4623,0.4663,0.4689,0.4696,0.4714,0.4755,0.4762,0.473,0.4796,0.4806,0.4848,0.4862,0.4845,0.4849,0.4961,0.4962,0.4964,0.4954,0,0,0,0,0,0,0.4532,0.4547,0.4563,0.4609,0.4625,0.4691,0.469,0.4698,0.4721,0.4722,0.4767,0.4774,0.4796,0.4842,0.4852,0.4867,0.4852,0.496,0.4962,0.4963,0.4953,0.4955,0.4956,0,0,0,0,0,0.4527,0.4556,0.4563,0.4576,0.4645,0.4691,0.47,0.4725,0.4722,0.4737,0.4763,0.4773,0.4859,0.4847,0.4858,0.4874,0.4959,0.4961,0.4963,0.4953,0.4955,0.4956,0,0,0,0,0,0,0.451,0.4563,0.4571,0.4617,0.4649,0.4695,0.4715,0.4726,0.476,0.476,0.4789,0.4799,0.4839,0.4861,0.4846,0.4913,0.4909,0.4913,0.4898,0.49,0.4901,0.4895,0.4855,0,0,0,0,0,0.4511,0.4545,0.4589,0.4625,0.4641,0.4675,0.4696,0.4712,0.4747,0.4761,0.4791,0.4824,0.4858,0.488,0.4914,0.4957,0.4966,0.4973,0.4975,0.4976,0.4979,0.5002,0.5006,0.497,0.497,0.497,0,0,0.4514,0.4548,0.4567,0.4622,0.4649,0.4683,0.4687,0.4722,0.4747,0.4766,0.4808,0.4831,0.487,0.4912,0.4933,0.4932,0.4991,0.4978,0.4978,0.4981,0.5004,0.5008,0.5011,0.4971,0.4971,0.4971,0,0,0.4537,0.4566,0.4599,0.4626,0.4668,0.469,0.4698,0.4742,0.4758,0.4801,0.4816,0.4846,0.4905,0.4931,0.4953,0.4985,0.4995,0.4995,0.5002,0.5025,0.5028,0.503,0.5041,0.5045,0.4999,0.4998,0.4998,0,0.4536,0.4587,0.4614,0.4649,0.4672,0.4692,0.4724,0.4749,0.48,0.4815,0.4813,0.4887,0.4915,0.4963,0.4971,0.4988,0.4997,0.499,0.5025,0.5028,0.5031,0.5042,0.5046,0.4998,0.4998,0.4998,0.4998,0,0.4583,0.4619,0.464,0.4689,0.4714,0.4748,0.4779,0.4801,0.4815,0.4838,0.4881,0.4914,0.4955,0.4968,0.4982,0.5018,0.5017,0.502,0.5016,0.5034,0.5044,0.5049,0.4998,0.4998,0.4998,0.4998,0,0,0.4597,0.466,0.4668,0.469,0.4737,0.4764,0.4798,0.4839,0.4857,0.4891,0.492,0.4969,0.4972,0.4996,0.5013,0.5033,0.5055,0.5033,0.5035,0.5036,0.5097,0.5094,0.5099,0.5062,0.5063,0.5064,0.5094,0,0.4626,0.4688,0.4713,0.4763,0.4796,0.4815,0.4844,0.4876,0.4897,0.4928,0.4951,0.4986,0.4988,0.5002,0.5023,0.5048,0.5068,0.5047,0.5088,0.509,0.5078,0.5105,0.5102,0.5129,0.5098,0.5099,0.51,0,0.4668,0.4702,0.4756,0.4799,0.4813,0.4839,0.4878,0.4907,0.4943,0.4957,0.4984,0.5,0.5035,0.5029,0.5078,0.5063,0.5081,0.5096,0.5098,0.5102,0.5095,0.5109,0.5138,0.5142,0.5107,0.5106,0.5106,0,0.4672,0.4732,0.4772,0.479,0.4841,0.4859,0.4881,0.4916,0.4939,0.4972,0.4987,0.5024,0.5044,0.5072,0.5097,0.5091,0.5143,0.514,0.5155,0.5155,0.5165,0.5164,0.5197,0.5178,0.5178,0.5178,0.5177,0,0.4701,0.4733,0.4774,0.4799,0.4835,0.4862,0.4897,0.492,0.4951,0.498,0.4998,0.5024,0.5056,0.5086,0.5105,0.5142,0.5151,0.5163,0.5168,0.5162,0.516,0.5174,0.5173,0.5179,0.5178,0.5178,0.5178,0,0.4712,0.4741,0.4785,0.483,0.4842,0.4867,0.4905,0.4928,0.4951,0.4987,0.4997,0.5032,0.5068,0.5096,0.5143,0.5156,0.5195,0.52,0.5183,0.5185,0.5199,0.5197,0.5241,0.5248,0.5225,0.5225,0.5225,0,0.4728,0.4753,0.4801,0.4822,0.4844,0.4877,0.49,0.4928,0.4951,0.4994,0.5012,0.505,0.5082,0.5138,0.5168,0.5203,0.5209,0.5222,0.5215,0.5207,0.5209,0.5207,0.5209,0.5223,0.5223,0.5223,0.5223,0,0.4754,0.4767,0.4801,0.4839,0.4866,0.4898,0.4929,0.4945,0.4978,0.5003,0.5041,0.5065,0.5113,0.515,0.5189,0.5211,0.5222,0.5226,0.5231,0.5224,0.5213,0.5219,0.5185,0.5224,0.5224,0.5224,0.5224,0.5224,0.4768,0.4791,0.4828,0.4864,0.4891,0.492,0.4945,0.4971,0.5003,0.5044,0.5059,0.5097,0.5132,0.5185,0.5207,0.5237,0.5237,0.5245,0.5247,0.5248,0.5248,0.5209,0.5244,0.5244,0.5244,0.5244,0.5244,0,0.4794,0.4819,0.4852,0.4896,0.4925,0.4934,0.4969,0.4992,0.5026,0.5058,0.5088,0.5131,0.5167,0.5199,0.5236,0.5253,0.526,0.5262,0.5261,0.5266,0.5246,0.5237,0.5256,0.5256,0.5256,0.5256,0.5256,0.5256,0.4811,0.4851,0.4868,0.4921,0.4945,0.4984,0.5003,0.5029,0.5055,0.5102,0.5132,0.5153,0.5184,0.5224,0.5256,0.5265,0.5277,0.5278,0.5288,0.5269,0.5267,0.5266,0.5258,0.5281,0.5281,0.5306,0.5306,0.5306]},{"header":{"parameterUnit":"m.s-1","parameterCategory":1,"la1":30.2991,"la2":30.254,"lo1":-89.0895,"lo2":-89.0444,"dy":0.0017,"dx":0.0017,"nx":28,"ny":28,"refTime":"2023-09-07T09:00:00:Z","depth":0,"parameterNumber":3,"parameterNumberName":"V-component_of_WINDS"},"data":[0,0,0,0,0,0,0,0,0,0,0,0,0,0,0,0,0,0,0,0,0,0,0,0,0,0,0,0,0,0,0,0,0,0,0,0,0,0,0,0,0,0,0,0,0,0,0,0,0,0,0,0,0,0,0,0,0,0,4.7567,4.7566,0,4.7516,4.7515,4.7515,4.7412,4.741,4.7408,4.7406,4.7357,4.7358,4.7358,0,0,0,0,0,0,0,0,0,0,0,0,0,4.7578,4.7578,4.7567,4.7566,4.7565,4.7516,4.7515,4.7515,4.7413,4.741,4.7408,4.7405,4.7357,4.7358,4.7358,0,0,0,0,0,0,0,0,0,0,0,0,0,4.7555,4.7578,4.7567,4.7508,4.7503,4.7516,4.7515,4.7514,4.7413,4.741,4.7407,4.7404,4.7357,4.7358,4.7359,4.7426,0,0,4.7361,4.7362,0,0,0,0,0,0,0,0,4.7556,4.7554,4.7518,4.7512,4.7506,4.7467,4.7501,4.7485,4.7414,4.7447,4.7406,4.7403,4.7397,4.7394,4.7391,4.7423,4.7421,4.7361,4.7362,4.7362,4.7363,0,0,0,0,0,0,0,4.7558,4.7556,4.7547,4.7517,4.751,4.7486,4.7479,4.7498,4.744,4.7444,4.7436,4.7432,4.7393,4.7391,4.7389,4.7421,4.7361,4.7362,4.7363,4.7363,4.7505,4.7508,0,0,0,0,0,0,4.7567,4.7558,4.7548,4.7545,4.7524,4.7488,4.748,4.7483,4.7439,4.743,4.7434,4.7427,4.7391,4.7388,4.7387,4.7462,4.7362,4.7363,4.7364,4.7502,4.7506,4.7509,0,0,0,0,0,0,4.7568,4.7568,4.755,4.7549,4.7545,4.7491,4.7494,4.7483,4.7481,4.7432,4.7421,4.7443,4.7388,4.7386,4.7417,4.7459,4.7364,4.7364,4.7498,4.7503,4.7507,4.7614,0,0,0,0,0,0,4.7569,4.7568,4.7593,4.7551,4.7546,4.758,4.7497,4.7485,4.7483,4.7473,4.7437,4.7428,4.7386,4.7416,4.7418,4.7459,4.7365,4.7494,4.75,4.7506,4.7606,4.7621,4.7635,0,0,0,0,0,4.757,4.7625,4.7594,4.7594,4.7575,4.7582,4.758,4.7529,4.7487,4.7511,4.7479,4.7429,4.7455,4.742,4.7421,4.7463,4.7491,4.7498,4.7505,4.76,4.7618,4.7634,0,0,0,0,0,0,4.7674,4.7619,4.7584,4.7627,4.761,4.7565,4.7594,4.755,4.7546,4.7537,4.7475,4.7468,4.7507,4.7488,4.745,4.7526,4.7465,4.7473,4.7536,4.7554,4.7568,4.7571,4.7366,0,0,0,0,0,4.7703,4.7713,4.7664,4.7707,4.77,4.7649,4.765,4.7613,4.7593,4.7585,4.7556,4.754,4.7544,4.7548,4.7549,4.7603,4.7594,4.7633,4.7647,4.7659,4.7666,4.7693,4.771,4.7533,4.7533,4.7533,0,0,4.7761,4.7732,4.7742,4.7727,4.7709,4.7722,4.7644,4.766,4.7669,4.7588,4.7615,4.7593,4.7571,4.7613,4.7631,4.7599,4.7713,4.7668,4.7678,4.7679,4.7703,4.7719,4.7734,4.7538,4.7537,4.7536,0,0,4.7873,4.7852,4.7885,4.7869,4.7843,4.7809,4.7817,4.7779,4.7761,4.7786,4.7726,4.7736,4.7745,4.7731,4.7725,4.7833,4.7787,4.7836,4.791,4.7937,4.7951,4.7963,4.8001,4.8016,4.7843,4.7844,4.7844,0,4.7949,4.7964,4.7908,4.7928,4.7924,4.7851,4.7885,4.7872,4.7849,4.7848,4.7812,4.7821,4.7801,4.7839,4.7866,4.7864,4.7871,4.7839,4.7954,4.7965,4.7976,4.8011,4.8026,4.785,4.7849,4.7848,4.7848,0,4.8058,4.807,4.8101,4.8078,4.8077,4.8105,4.8054,4.806,4.8023,4.7992,4.802,4.7993,4.7987,4.7994,4.7958,4.8027,4.8008,4.7965,4.7902,4.7999,4.8032,4.8045,4.7858,4.7856,4.7854,4.7853,0,0,4.8234,4.8181,4.8193,4.8182,4.8148,4.8157,4.8181,4.8175,4.8181,4.8168,4.8186,4.8195,4.8154,4.8148,4.811,4.8134,4.8221,4.8087,4.8086,4.8112,4.8295,4.8328,4.8345,4.8191,4.8193,4.8195,4.8297,0,4.8338,4.8375,4.8326,4.8374,4.8384,4.8316,4.8337,4.8319,4.8292,4.8297,4.8268,4.8275,4.822,4.8216,4.8237,4.8206,4.8257,4.8198,4.8208,4.8209,4.8214,4.8362,4.8396,4.8494,4.8309,4.8311,4.8313,0,4.8464,4.8455,4.8505,4.8468,4.847,4.849,4.848,4.8486,4.8465,4.8444,4.8437,4.8392,4.8413,4.8354,4.8383,4.8344,4.8346,4.8331,4.8334,4.8332,4.8266,4.8363,4.8524,4.8538,4.8332,4.8331,4.833,0,4.8586,4.8588,4.8617,4.861,4.8568,4.8583,4.8567,4.8542,4.8542,4.8534,4.8533,4.8528,4.8525,4.8523,4.8478,4.8439,4.8513,4.845,4.8496,4.8497,4.8514,4.8513,4.8676,4.8517,4.8516,4.8516,4.8516,0,4.8707,4.874,4.8671,4.8689,4.8724,4.8668,4.8704,4.8681,4.866,4.8673,4.8614,4.8627,4.8567,4.8575,4.854,4.8569,4.8569,4.8552,4.8542,4.8557,4.8559,4.8556,4.8548,4.852,4.8519,4.8518,4.8518,0,4.8849,4.8805,4.8832,4.879,4.878,4.8808,4.8772,4.8788,4.8757,4.8774,4.8775,4.8727,4.8732,4.8687,4.8685,4.8661,4.8707,4.8686,4.8714,4.8707,4.8756,4.8752,4.8922,4.8941,4.8771,4.8772,4.8774,0,4.8928,4.8952,4.8912,4.8916,4.8902,4.891,4.8908,4.8855,4.8856,4.8834,4.8852,4.8853,4.885,4.8863,4.8828,4.8826,4.8804,4.8864,4.8803,4.8817,4.8804,4.8803,4.8805,4.8876,4.8878,4.888,4.8881,0,4.9074,4.9051,4.9051,4.9044,4.9044,4.9036,4.9024,4.9031,4.8972,4.8977,4.8982,4.898,4.8977,4.8978,4.8969,4.8953,4.8908,4.8901,4.8911,4.8926,4.8941,4.8933,4.8748,4.8897,4.8895,4.8894,4.8893,4.8893,4.9186,4.9204,4.9179,4.9181,4.9166,4.9157,4.9169,4.914,4.9142,4.9135,4.9103,4.9114,4.9092,4.9075,4.9064,4.9071,4.9042,4.9058,4.9062,4.9066,4.9075,4.8941,4.907,4.9069,4.9069,4.9068,4.9068,0,4.9328,4.9309,4.9311,4.9296,4.9298,4.9255,4.924,4.9245,4.9254,4.9238,4.9236,4.9242,4.9243,4.9209,4.9206,4.9219,4.9198,4.922,4.9218,4.9215,4.9101,4.9092,4.9237,4.9237,4.9237,4.9237,4.9237,4.9237,4.9402,4.9429,4.9404,4.9423,4.9403,4.9412,4.9407,4.9399,4.9385,4.9394,4.9394,4.9371,4.9348,4.9343,4.9342,4.9332,4.9334,4.9363,4.9346,4.924,4.9223,4.9208,4.9199,4.9364,4.9364,4.9459,4.946,4.946]}]]